Notices

What's New in latest Release from April 7th, 2021:

- Updated Glossary, including Speed of Maximum Gust, and Total Hourly Precipitation

- Updated national and regional climate services offices contacts and prices information

- Addition of station inventory lists for 1981-2010, 1971-2000, and 1961-1990 Normals.

If you haven't already, please take our survey and provide feedback about our website: https://eccc.sondage-survey.ca/f/LanguageSelection.aspx?s=442ca660-fcf1-47c0-95a9-59707d6fd709

Hourly Data Report for April 01, 2021

KENORA A
ONTARIO
Current Station Operator: NAVCAN

49°47'18.000" N
94°21'47.000" W
409.70 m
6034076
71850
YQK

Download Data

Hourly Data (April 2021)
Hourly Data Report for April 1, 2021
TIME
LST
Temp Definition
°C
Dew Point Definition
°C
Rel Hum Definition
%
Precip. Amount Definition
mm

Wind Dir Definition
10's deg

Wind Spd Definition
km/h
Visibility Definition
km
Stn Press Definition
kPa
Hmdx Definition


Wind Chill Definition


Weather Definition


00:00 -8.7 -12.8 72   19 9 32.2 98.01   -13 Clear
01:00 -8.8 -12.0 78   19 10 32.2 98.01   -14 LegendNANA
02:00 -9.0 -12.7 75   19 12 32.2 97.99   -15 LegendNANA
03:00 -9.4 -12.9 76   19 12 32.2 97.98   -15 Clear
04:00 -9.7 -13.3 75   19 13 32.2 97.94   -16 LegendNANA
05:00 -9.6 -13.8 72   20 14 32.2 97.95   -16 LegendNANA
06:00 -9.2 -13.5 71   19 18 32.2 97.94   -16 Clear
07:00 -8.1 -13.3 66   19 16 32.2 97.94   -15 LegendNANA
08:00 -6.2 -12.8 60   20 22 32.2 97.94   -13 LegendNANA
09:00 -4.0 -12.6 51   20 21 32.2 97.92   -10 Mainly Clear
10:00 -2.1 -12.4 45   21 23 32.2 97.91   -8 LegendNANA
11:00 -0.3 -12.2 40   20 25 32.2 97.87   -6 LegendNANA
12:00 1.7 -12.2 35   21 25 32.2 97.77     Mainly Clear
13:00 3.5 -12.3 31   21 26 32.2 97.69     LegendNANA
14:00 4.3 -13.4 26   18 27 32.2 97.58     LegendNANA
15:00 5.0 -13.4 25   19 27 32.2 97.47     Mainly Clear
16:00 5.6 -12.5 26   18 20 32.2 97.39     LegendNANA
17:00 5.3 -11.8 28   18 29 32.2 97.34     LegendNANA
18:00 4.8 -12.8 27   18 26 32.2 97.29     Mainly Clear
19:00 3.8 -12.4 30   18 21 32.2 97.24     LegendNANA
20:00 2.8 -12.1 33   17 19 32.2 97.24     LegendNANA
21:00 1.8 -11.4 37   17 19 32.2 97.18     Mainly Clear
22:00 1.7 -11.4 37   17 27 32.2 97.10     LegendNANA
23:00 1.6 -11.3 38   18 27 32.2 97.02     LegendNANA

Notes on Data Quality.

Legend

  • E = Estimated
  • M = Missing
  • NA = Not Available*
  • [empty] = Indicates an unobserved value
Date modified: